LINCS2 (48903 NORAD) Tracking and Keplerian Element Data

This shows tracking and keplerian element data for the satellite.

Feedback or suggestion? Click here.




ElementValue
Catalog48903
NameLINCS2
Epoch Orbit1286
Epoch Day261.91305066
Epoch Year2021
RAAN29.397
Inclination97.5161
Eccentricity0.0009495
Argument of Perigee323.5719
Mean Anonmoly36.4865
Mean Motion15.1243612
Decay Rate8.48E-06
L11 48903U 21059AA 21261.91305066 .00000848 00000-0 52473-4 0 9998
L22 48903 97.5161 29.3970 0009495 323.5719 36.4865 15.12436120 12866

Live tracking and technical data element details for LINCS2 (NORAD 48903). LINCS2 can be tracked NOW for your location showing map with azimuth and elevation plus other details from your city location.

Track the satellite on the map from your city or location and see movement details for azimuth, elevation, latitude, longitude, range, height, and movement on the map or in text.







IsCatalogInMostPopularTable: catalog: 48903, numindb: 14
Update: records affected: 1



GetName: 48903 LINCS2

Hit Count: updated at: Fri, 24 Sep 2021 18:39:22 GMT